Erie, PA

10:38 PM EDT on August 17, 2017 (GMT -0400)
Erie International

Weather History for KERI - August, 2014

Change the Weather History Date:

Wednesday, August 27, 2014

  Actual Average Record
Temperature  
Mean Temperature 71 °F 69 °F  
Max Temperature 76 °F 78 °F 92 °F (1948)
Min Temperature 65 °F 61 °F 47 °F (1954)
Degree Days  
Heating Degree Days 0 1  
Month to date heating degree days 11 2  
Since 1 June heating degree days 46 70  
Since 1 July heating degree days 16 9  
Cooling Degree Days 6 5  
Month to date cooling degree days 141 165  
Year to date cooling degree days 490 540  
Since 1 June cooling degree days 451 501  
Growing Degree Days 22 (Base 50)    
Moisture  
Dew Point 62 °F    
Average Humidity 72    
Maximum Humidity 90    
Minimum Humidity 54    
Precipitation  
Precipitation 0.00 in 0.11 in 1.36 in (1987)
Month to date precipitation 2.68 3.03  
Year to date precipitation 27.07 25.39  
Snow  
Snow 0.00 in 0.00 in - ()
Month to date snowfall 0.0 0.0  
Since 1 June snowfall 0.0 0.0  
Since 1 July snowfall 0.0 0.0  
Snow Depth 0.00 in    
Sea Level Pressure  
Sea Level Pressure 30.06 in    
Wind  
Wind Speed 8 mph (NW)    
Max Wind Speed 14 mph    
Max Gust Speed 20 mph    
Visibility 9 miles    
Events      
T = Trace of Precipitation, MM = Missing Value Source: NWS Daily Summary

Daily Weather History Graph

Daily Weather History Graph

Search for Another Location

Airport or City:

Trip Planner

Search our weather history database for the weather conditions in past years. The results will help you decide how hot, cold, wet, or windy it might be!

Date:

Astronomy

Aug. 27, 2014 Rise Set
Actual Time 6:40 AM EDT 8:02 PM EDT
Civil Twilight 6:11 AM EDT 8:31 PM EDT
Nautical Twilight 5:36 AM EDT 9:06 PM EDT
Astronomical Twilight 4:59 AM EDT 9:43 PM EDT
Moon 8:38 AM EDT (8/27) 8:50 PM EDT (8/27)
Length of Visible Light 14h 19m
Length of Day
13h 21m
Waxing Crescent, 4% of the Moon is Illuminated
Aug 27
Waxing Crescent
Sep 2
First Quarter
Sep 8
Full
Sep 15
Last Quarter
Sep 24
New

Hourly Weather History & Observations

Time (EDT) Temp. Dew Point Humidity Pressure Visibility Wind Dir Wind Speed Gust Speed Precip Events Conditions
12:51 AM 75.0 °F 66.9 °F 76% 30.02 in 10.0 mi SW 9.2 mph - N/A   Clear
1:51 AM 75.2 °F 66.2 °F 73% 30.05 in 10.0 mi SW 3.5 mph - N/A   Clear
2:51 AM 75.0 °F 66.9 °F 76% 30.04 in 10.0 mi WSW 6.9 mph - N/A   Clear
3:51 AM 73.0 °F 66.9 °F 81% 30.05 in 10.0 mi West 8.1 mph - N/A   Scattered Clouds
4:02 AM 73.4 °F 68.0 °F 83% 30.06 in 10.0 mi West 8.1 mph - N/A   Mostly Cloudy
4:28 AM 73.4 °F 68.0 °F 83% 30.06 in 10.0 mi West 5.8 mph - N/A   Overcast
4:51 AM 73.0 °F 68.0 °F 84% 30.05 in 10.0 mi West 6.9 mph - N/A   Overcast
5:51 AM 72.0 °F 68.0 °F 87% 30.06 in 7.0 mi West 5.8 mph - N/A   Overcast
6:51 AM 72.0 °F 68.0 °F 87% 30.06 in 4.0 mi NW 4.6 mph - N/A   Mist
7:51 AM 72.0 °F 66.9 °F 84% 30.06 in 5.0 mi North 4.6 mph - N/A   Haze
8:51 AM 71.6 °F 64.4 °F 78% 30.08 in 10.0 mi NNE 5.8 mph - N/A   Overcast
9:00 AM 71.6 °F 64.4 °F 78% 30.08 in 10.0 mi NNE 8.1 mph - N/A   Overcast
9:51 AM 72.0 °F 63.0 °F 73% 30.07 in 10.0 mi NNE 6.9 mph - N/A   Overcast
10:14 AM 73.4 °F 64.4 °F 73% 30.09 in 10.0 mi North 8.1 mph - N/A   Overcast
10:51 AM 73.0 °F 64.0 °F 73% 30.08 in 8.0 mi North 5.8 mph - N/A   Overcast
10:58 AM 71.6 °F 64.4 °F 78% 30.09 in 8.0 mi NNW 5.8 mph - N/A   Overcast
11:51 AM 73.9 °F 64.0 °F 71% 30.07 in 10.0 mi NNW 6.9 mph - N/A   Overcast
12:02 PM 73.4 °F 62.6 °F 69% 30.09 in 10.0 mi NNW 9.2 mph - N/A   Overcast
12:13 PM 73.4 °F 62.6 °F 69% 30.10 in 10.0 mi NNW 6.9 mph - N/A   Overcast
12:24 PM 73.4 °F 60.8 °F 65% 30.10 in 10.0 mi NNW 8.1 mph - N/A   Overcast
12:49 PM 75.2 °F 60.8 °F 61% 30.09 in 10.0 mi NNW 6.9 mph - N/A   Mostly Cloudy
12:51 PM 75.0 °F 60.1 °F 60% 30.08 in 10.0 mi NNW 6.9 mph - N/A   Scattered Clouds
1:51 PM 75.0 °F 57.0 °F 53% 30.07 in 10.0 mi NNW 8.1 mph - N/A   Mostly Cloudy
2:51 PM 73.9 °F 59.0 °F 59% 30.06 in 10.0 mi NW 9.2 mph - N/A   Mostly Cloudy
3:51 PM 73.9 °F 57.9 °F 57% 30.05 in 10.0 mi WNW 8.1 mph - N/A   Mostly Cloudy
4:05 PM 73.4 °F 57.2 °F 57% 30.07 in 10.0 mi WNW 8.1 mph - N/A   Overcast
4:31 PM 73.4 °F 57.2 °F 57% 30.07 in 10.0 mi WNW 10.4 mph - N/A   Scattered Clouds
4:51 PM 75.0 °F 57.0 °F 53% 30.05 in 10.0 mi West 9.2 mph - N/A   Clear
5:51 PM 73.9 °F 57.9 °F 57% 30.05 in 10.0 mi West 8.1 mph - N/A   Clear
6:51 PM 73.9 °F 57.0 °F 55% 30.04 in 10.0 mi WNW 8.1 mph - N/A   Clear
7:51 PM 73.0 °F 59.0 °F 61% 30.03 in 10.0 mi NW 8.1 mph - N/A   Clear
8:51 PM 71.1 °F 57.0 °F 61% 30.06 in 10.0 mi North 9.2 mph 17.3 mph N/A   Clear
9:51 PM 69.1 °F 55.0 °F 61% 30.07 in 10.0 mi NNW 6.9 mph - N/A   Clear
10:51 PM 68.0 °F 55.4 °F 64% 30.09 in 10.0 mi North 9.2 mph 18.4 mph N/A   Clear
11:51 PM 66.9 °F 54.0 °F 63% 30.09 in 10.0 mi North 11.5 mph - N/A   Clear